Showing default

GOSAT 2, 43672

Orbit data source: Space-Track

GOSAT 2, 43672 is a payload satellite owned by JAXA (JP) in SSO that was launched on Mon, 29 Oct 2018 UTC via an H-IIA 202 launch vehicle from the Tanegashima Space Center (TNSTA). Payload-class satellites include a variety of spacecraft equipped with specific instruments for various scientific and technological missions. These include communications satellites like Starlink; space stations such as the ISS; scientific satellites like the Hubble; Earth observation satellites from companies like Planet Labs, Umbra, and HawkEye 360; GPS; miniature CubeSats for education and research; and military/defense satellites.

Loading next visibility...
Identifier
43672, 2018-084B
Orbit
SSO
Country
Flag of JPJP / JPN
Related business
Manufacturer
MELCO
Mission
Operational Civil Science
Bus & Motor
GOSAT, AOCS
Mass
1,750 kg wet, ~1,700 kg dry
Launch date (UTC)
2018-10-29 (7 years ago)
Launch vehicle
H-IIA 202
Launch site
Tanegashima Space Center (TNSTA)
Object type
Payload
Rocket body
Debris
Shape & HBR
Box + 2 Pan, 8.4 m
Radar Cross Section
20.392 m², Large (>1 m²)

Expand to show TLE details & history
Last TLE update: 1 day ago

TLE from 1 day ago
0 GOSAT 2
1 43672U 18084B   26106.74335247  .00000842  00000-0  10689-3 0  9994
2 43672  97.8722 219.0146 0001448  93.3490 266.7890 14.84239736404448
Epoch: 2026-04-16T17:50Z
TLE epoch observation values (Epoch: 2026-04-16T17:50:25.653Z)
Latitude
-0.00002°
Longitude
106.5212°
Altitude
619.058 km
Speed
7.549 km/s
True Right ascension
14h 36m 03s
True Declination
0° 00' 00"
Sunlit
Object was in full shadow at epoch
Visualization orbit readout
Latitude
Unknown
Longitude
Unknown
Altitude
Unknown
Speed
Unknown
Apparent Right ascension
Unknown
Apparent Declination
Unknown
Sunlit
N/A
Visualization observer readout
Local Sidereal Time
00:48:12
Azimuth
Unknown
Elevation
Unknown
Doppler factor
Unknown
Orbital elements
Apogee altitude
614.019 km
Perigee altitude
611.995 km
Semi-major axis
6,991.144 km
Eccentricity
0.00014
Inclination
97.8722°
RAAN
219.0146°
Arg. of periapsis
93.349°
True anomaly
266.77243°
Mean anomaly
266.789°
Eccentric anomaly
266.78072°
Mean motion
3.71296 °/min
Orbital period
96.96 mins
BSTAR
0.00010689
Loading maneuver chart data...
Computing Atmospheric mass density...
Loading historical data...
Loading historical data...
Loading historical data...
Loading historical data...
Loading historical data...
Loading historical data...
Loading historical data...

Documentation

Showing up to 5 results
|